Location: Lane
(33.5226°N, 79.8788°W)
Time: 20:37:33
(UTC+00:00)

Explorer 11/Cluster Stage 4 - Pass Details

Date: 30 September 2022
Orbit: 466 x 1247 km, 28.8° (Epoch: 01 December)

Event Time Altitude Azimuth Distance (km) Brightness Sun altitude
Rises 19:43:52 0° 260° (W) 3,900 10.9 38.4°
Reaches altitude 10° 19:46:55 10° 257° (WSW) 2,831 10.5 37.9°
Maximum altitude 19:53:36 56° 181° (S) 1,042 8.2 36.8°
Drops below altitude 10° 19:58:57 10° 104° (ESE) 2,277 8.7 35.9°
Sets 20:01:11 0° 100° (E) 3,085 9.3 35.5°
